Showing default

LIME, 62648

Orbit data source: Space-Track

LIME, 62648 is an American payload satellite in SSO that was launched on Tue, 14 Jan 2025 UTC via an FALCON 9 launch vehicle from the Air Force Western Test Range (AFWTR). Payload-class satellites include a variety of spacecraft equipped with specific instruments for various scientific and technological missions. These include communications satellites like Starlink; space stations such as the ISS; scientific satellites like the Hubble; Earth observation satellites from companies like Planet Labs, Umbra, and HawkEye 360; GPS; miniature CubeSats for education and research; and military/defense satellites.

Loading next visibility...
Identifier
62648, 2025-009AR
Orbit
SSO
Country
Flag of USUS
Related business
Manufacturer
NOVI
Mission
Operational Commercial Technology
Bus & Motor
CUBESAT 3U, Unknown motor
Mass
~4 kg wet, ~4 kg dry
Launch date (UTC)
2025-01-14 (1 year ago)
Launch vehicle
FALCON 9
Launch site
Air Force Western Test Range (AFWTR)
Object type
Payload
Rocket body
Debris
Shape & HBR
Box + 2 Pan, 0.1 m
Radar Cross Section
0.035 m², Medium (>0.1 m² and < 1m²)

Expand to show TLE details & history
Last TLE update: 15 hours ago

TLE from 15 hours ago
0 LIME
1 62648U 25009AR  26171.23114451  .00008967  00000-0  30242-3 0  9994
2 62648  97.3947 253.5007 0001501  35.4267 324.7074 15.30944143 79437
Epoch: 2026-06-20T05:32Z
TLE epoch observation values (Epoch: 2026-06-20T05:32:50.885Z)
Latitude
0.00001°
Longitude
-98.16006°
Altitude
475.26 km
Speed
7.629 km/s
True Right ascension
16h 54m 00s
True Declination
0° 00' 00"
Sunlit
Object was in full shadow at epoch
Visualization orbit readout
Latitude
Unknown
Longitude
Unknown
Altitude
Unknown
Speed
Unknown
Apparent Right ascension
Unknown
Apparent Declination
Unknown
Sunlit
N/A
Visualization observer readout
Local Sidereal Time
07:22:57
Azimuth
Unknown
Elevation
Unknown
Doppler factor
Unknown
Orbital elements
Apogee altitude
470.973 km
Perigee altitude
468.917 km
Semi-major axis
6,848.082 km
Eccentricity
0.00015
Inclination
97.3947°
RAAN
253.5007°
Arg. of periapsis
35.4267°
True anomaly
324.69746°
Mean anomaly
324.7074°
Eccentric anomaly
324.70243°
Mean motion
3.82992 °/min
Orbital period
94 mins
BSTAR
0.00030242
Loading maneuver chart data...
Computing Atmospheric mass density...
Loading historical data...
Loading historical data...
Loading historical data...
Loading historical data...
Loading historical data...
Loading historical data...
Loading historical data...

Documentation

Showing up to 5 results
|